Location: Alfortville
(48.8058°N, 2.4204°E)
Time: 04:35:21
(UTC+00:00)

USA 229 DEB - Pass Details

Date: 03 June 2022
Orbit: 934 x 1278 km, 63.4° (Epoch: 24 May)

Event Time Altitude Azimuth Distance (km) Brightness Sun altitude
Rises 21:58:40 0° 317° (NW) 3,943 8.2 -14.7°
Reaches altitude 10° 22:01:16 10° 318° (NW) 3,029 7.3 -14.9°
Maximum altitude 22:08:36 89° 240° (WSW) 1,209 3.9 -15.4°
Enters shadow 22:14:22 20° 141° (SE) 2,518 5.1 -15.8°
